Location: Gorze? G�rny
(49.8500°N, 19.5000°E)
Time: 19:25:15
(UTC+00:00)

Cosmos 1674 Rocket - Pass Details

Date: 02 October 2021
Orbit: 601 x 631 km, 82.5° (Epoch: 25 October)

Event Time Altitude Azimuth Distance (km) Brightness Sun altitude
Rises 17:13:32 0° 338° (NNW) 2,874 7.4 -9.8°
Reaches altitude 10° 17:16:09 10° 323° (NW) 1,961 6.8 -10.2°
Maximum altitude 17:19:27 22° 273° (W) 1,343 6.4 -10.7°
Drops below altitude 10° 17:22:44 10° 223° (SW) 1,944 6.6 -11.2°
Sets 17:25:19 0° 208° (SSW) 2,842 7.2 -11.7°
